Weather History for Alexandria, LA

Change the Weather History Date:

Thursday, January 26, 2012

  Actual Average Record
Temperature  
Mean Temperature 56 °F 49 °F  
Max Temperature 63 °F 60 °F 78 °F (1950)
Min Temperature 48 °F 38 °F 10 °F (1940)
Degree Days  
Heating Degree Days 9 16  
Month to date heating degree days 265 416  
Since 1 July heating degree days 1077 1205  
Growing Degree Days 7 (Base 50)    
Moisture  
Dew Point 51 °F    
Average Humidity 85    
Maximum Humidity 93    
Minimum Humidity 77    
Precipitation  
Precipitation 0.02 in 0.18 in 2.30 in (1932)
Month to date precipitation 5.23 4.19  
Year to date precipitation 5.23 4.19  
Snow  
Snow 0.00 in - 1.00 in (1897)
Month to date snowfall 0.0  
Since 1 July snowfall 0.0  
Snow Depth 0.00 in    
Sea Level Pressure  
Sea Level Pressure 29.87 in    
Wind  
Wind Speed 8 mph (West)    
Max Wind Speed 15 mph    
Max Gust Speed 22 mph    
Visibility 8 miles    
Events Fog , Rain    
T = Trace of Precipitation, MM = Missing Value Source: NWS Daily Summary

Daily Weather History Graph

Daily Weather History Graph

Search for Another Location

Airport:

Trip Planner

Search our weather history database for the weather conditions in past years. The results will help you decide how hot, cold, wet, or windy it might be!

Date:

Astronomy

Jan. 26, 2012 Rise Set
Actual Time 7:06 AM CST 5:39 PM CST
Civil Twilight 6:40 AM CST 6:05 PM CST
Nautical Twilight 6:11 AM CST 6:34 PM CST
Astronomical Twilight 5:42 AM CST 7:03 PM CST
Moon 8:51 AM CST (1/26) 9:13 PM CST (1/26)
Length of Visible Light 11h 24m
Length of Day
10h 33m
Waxing Crescent, 12% of the Moon is Illuminated
Jan 26
Waxing Crescent
Jan 30
First Quarter
Feb 7
Full
Feb 14
Last Quarter
Feb 21
New

Hourly Weather History & Observations

Time (CST) Temp. Dew Point Humidity Pressure Visibility Wind Dir Wind Speed Gust Speed Precip Events Conditions
12:53 AM 63.0 °F 61.0 °F 93% 29.85 in 10.0 mi ESE 4.6 mph - N/A   Overcast
1:53 AM 62.1 °F 61.0 °F 96% 29.82 in 9.0 mi SE 4.6 mph - N/A   Overcast
2:53 AM 62.1 °F 61.0 °F 96% 29.82 in 4.0 mi South 4.6 mph - 0.00 in Rain Light Rain
3:04 AM 62.6 °F 60.8 °F 94% 29.82 in 2.0 mi SSW 4.6 mph - 0.01 in Rain Light Rain
3:19 AM 62.6 °F 60.8 °F 94% 29.82 in 4.0 mi SSW 3.5 mph - 0.01 in Rain Light Rain
3:53 AM 62.1 °F 60.1 °F 93% 29.83 in 5.0 mi WNW 6.9 mph - 0.02 in Rain Light Rain
4:36 AM 57.2 °F 57.2 °F 100% 29.81 in 10.0 mi West 3.5 mph - 0.00 in   Overcast
4:53 AM 59.0 °F 57.9 °F 96% 29.82 in 10.0 mi Calm Calm - 0.00 in   Overcast
5:53 AM 57.9 °F 57.0 °F 97% 29.82 in 10.0 mi West 5.8 mph - 0.00 in Rain Light Rain
6:02 AM 57.2 °F 57.2 °F 100% 29.81 in 10.0 mi West 4.6 mph - 0.00 in   Overcast
6:14 AM 57.2 °F 57.2 °F 100% 29.82 in 10.0 mi WSW 3.5 mph - 0.00 in   Overcast
6:31 AM 57.2 °F 57.2 °F 100% 29.80 in 4.0 mi Calm Calm - 0.00 in   Overcast
6:34 AM 57.2 °F 57.2 °F 100% 29.81 in 1.8 mi West 6.9 mph - 0.00 in   Overcast
6:43 AM 57.2 °F 57.2 °F 100% 29.83 in 0.5 mi West 8.1 mph - 0.00 in Fog Fog
6:53 AM 57.0 °F 57.0 °F 100% 29.84 in 0.5 mi West 8.1 mph - 0.00 in Fog Fog
7:01 AM 57.2 °F 57.2 °F 100% 29.84 in 2.0 mi WSW 11.5 mph - N/A   Overcast
7:09 AM 57.2 °F 55.4 °F 94% 29.84 in 9.0 mi West 8.1 mph - N/A   Overcast
7:23 AM 57.2 °F 55.4 °F 94% 29.85 in 10.0 mi WSW 9.2 mph - N/A   Overcast
7:43 AM 55.4 °F 55.4 °F 100% 29.85 in 10.0 mi West 10.4 mph - N/A   Overcast
7:53 AM 55.9 °F 54.0 °F 93% 29.86 in 4.0 mi West 10.4 mph 19.6 mph 0.00 in Rain Light Rain
8:04 AM 55.4 °F 53.6 °F 94% 29.85 in 4.0 mi West 9.2 mph - 0.00 in Rain Light Rain
8:13 AM 55.4 °F 53.6 °F 94% 29.85 in 10.0 mi West 13.8 mph 19.6 mph 0.00 in   Overcast
8:53 AM 55.0 °F 51.1 °F 86% 29.87 in 10.0 mi West 8.1 mph - 0.00 in   Overcast
9:31 AM 53.6 °F 50.0 °F 88% 29.87 in 9.0 mi West 12.7 mph 20.7 mph N/A   Overcast
9:53 AM 53.1 °F 48.9 °F 86% 29.90 in 10.0 mi West 10.4 mph 21.9 mph N/A   Overcast
10:11 AM 53.6 °F 50.0 °F 88% 29.88 in 9.0 mi West 8.1 mph - N/A   Overcast
10:38 AM 51.8 °F 46.4 °F 82% 29.89 in 10.0 mi West 10.4 mph 17.3 mph N/A   Overcast
10:53 AM 52.0 °F 46.9 °F 83% 29.90 in 10.0 mi West 9.2 mph - N/A   Overcast
11:53 AM 54.0 °F 46.9 °F 77% 29.88 in 10.0 mi WSW 8.1 mph - N/A   Mostly Cloudy
12:16 PM 53.6 °F 46.4 °F 77% 29.85 in 10.0 mi WSW 8.1 mph - N/A   Overcast
12:53 PM 54.0 °F 46.9 °F 77% 29.86 in 10.0 mi WSW 8.1 mph - N/A   Overcast
1:53 PM 54.0 °F 46.0 °F 75% 29.83 in 10.0 mi West 9.2 mph - N/A   Overcast
2:53 PM 53.1 °F 46.9 °F 80% 29.85 in 9.0 mi West 11.5 mph 19.6 mph N/A   Overcast
3:11 PM 53.6 °F 46.4 °F 77% 29.84 in 10.0 mi West 8.1 mph - N/A   Overcast
3:39 PM 53.6 °F 46.4 °F 77% 29.85 in 9.0 mi West 6.9 mph 18.4 mph N/A   Overcast
3:53 PM 53.1 °F 46.9 °F 80% 29.86 in 10.0 mi West 9.2 mph - N/A   Overcast
4:02 PM 53.6 °F 46.4 °F 77% 29.86 in 10.0 mi WNW 9.2 mph - N/A   Overcast
4:21 PM 51.8 °F 46.4 °F 82% 29.86 in 6.0 mi WNW 10.4 mph - 0.00 in Rain Light Rain
4:53 PM 51.1 °F 48.0 °F 89% 29.88 in 10.0 mi WNW 6.9 mph - 0.00 in   Overcast
5:28 PM 51.8 °F 48.2 °F 88% 29.89 in 10.0 mi West 5.8 mph - 0.00 in   Overcast
5:53 PM 52.0 °F 48.0 °F 86% 29.91 in 10.0 mi West 8.1 mph - 0.00 in   Overcast
6:05 PM 51.8 °F 48.2 °F 88% 29.90 in 10.0 mi WNW 4.6 mph - N/A   Overcast
6:14 PM 51.8 °F 46.4 °F 82% 29.91 in 10.0 mi WNW 4.6 mph - N/A   Overcast
6:43 PM 51.8 °F 46.4 °F 82% 29.92 in 10.0 mi WNW 6.9 mph - N/A   Overcast
6:53 PM 52.0 °F 46.9 °F 83% 29.94 in 10.0 mi WNW 8.1 mph - N/A   Overcast
7:48 PM 51.8 °F 46.4 °F 82% 29.94 in 10.0 mi WNW 8.1 mph - 0.00 in   Overcast
7:53 PM 51.1 °F 46.0 °F 83% 29.96 in 10.0 mi WNW 9.2 mph - 0.00 in   Overcast
8:16 PM 51.8 °F 44.6 °F 76% 29.96 in 10.0 mi WNW 9.2 mph - N/A   Overcast
8:53 PM 51.1 °F 45.0 °F 80% 29.99 in 10.0 mi WNW 8.1 mph - N/A   Overcast
9:53 PM 51.8 °F 44.6 °F 76% 29.99 in 10.0 mi NW 10.4 mph - N/A   Overcast
10:31 PM 51.8 °F 44.6 °F 76% 30.00 in 10.0 mi NW 8.1 mph - N/A   Overcast
10:53 PM 51.1 °F 45.0 °F 80% 30.03 in 10.0 mi WNW 6.9 mph - N/A   Overcast
11:53 PM 48.9 °F 45.0 °F 86% 30.02 in 10.0 mi West 4.6 mph - N/A   Clear